owner,sensor,date,latitude,longitude,vertical_datum,mass_concentration_of_oxygen_in_sea_water,qcFlag 
DISL,ioos:station:DISL:CATA:1,2008-11-01T00:00:00Z,30.3085,-88.1395,2.62,8.98,1111122 
DISL,ioos:station:DISL:CATA:1,2008-11-01T00:30:00Z,30.3085,-88.1395,2.648,8.96,1111122 
DISL,ioos:station:DISL:CATA:1,2008-11-01T01:00:00Z,30.3085,-88.1395,2.683,8.93,1111122 
DISL,ioos:station:DISL:CATA:1,2008-11-01T01:30:00Z,30.3085,-88.1395,2.72,9.01,1111122 
DISL,ioos:station:DISL:CATA:1,2008-11-01T02:00:00Z,30.3085,-88.1395,2.755,9.06,1111122 
DISL,ioos:station:DISL:CATA:1,2008-11-01T02:30:00Z,30.3085,-88.1395,2.774,9.09,1111122 
DISL,ioos:station:DISL:CATA:1,2008-11-01T03:00:00Z,30.3085,-88.1395,2.798,9.05,1111122 
DISL,ioos:station:DISL:CATA:1,2008-11-01T03:30:00Z,30.3085,-88.1395,2.82,9.03,1111122 
DISL,ioos:station:DISL:CATA:1,2008-11-01T04:00:00Z,30.3085,-88.1395,2.832,9.03,1111122 
DISL,ioos:station:DISL:CATA:1,2008-11-01T04:30:00Z,30.3085,-88.1395,2.834,8.99,1111122 
DISL,ioos:station:DISL:CATA:1,2008-11-01T05:00:00Z,30.3085,-88.1395,2.84,8.95,1111122 
DISL,ioos:station:DISL:CATA:1,2008-11-01T05:30:00Z,30.3085,-88.1395,2.83,8.93,1111122 
DISL,ioos:station:DISL:CATA:1,2008-11-01T06:00:00Z,30.3085,-88.1395,2.814,8.77,1111122 
DISL,ioos:station:DISL:CATA:1,2008-11-01T06:30:00Z,30.3085,-88.1395,2.797,6.83,1111122 
DISL,ioos:station:DISL:CATA:1,2008-11-01T07:00:00Z,30.3085,-88.1395,2.773,6.32,1111122 
DISL,ioos:station:DISL:CATA:1,2008-11-01T07:30:00Z,30.3085,-88.1395,2.744,8.39,1111122 
DISL,ioos:station:DISL:CATA:1,2008-11-01T08:00:00Z,30.3085,-88.1395,2.716,8.53,1111122 
DISL,ioos:station:DISL:CATA:1,2008-11-01T08:30:00Z,30.3085,-88.1395,2.677,7.18,1111122 
DISL,ioos:station:DISL:CATA:1,2008-11-01T09:00:00Z,30.3085,-88.1395,2.641,8.14,1111122 
DISL,ioos:station:DISL:CATA:1,2008-11-01T09:30:00Z,30.3085,-88.1395,2.602,8.36,1111122 
DISL,ioos:station:DISL:CATA:1,2008-11-01T10:00:00Z,30.3085,-88.1395,2.564,8.45,1111122 
DISL,ioos:station:DISL:CATA:1,2008-11-01T10:30:00Z,30.3085,-88.1395,2.521,8.49,1111122 
DISL,ioos:station:DISL:CATA:1,2008-11-01T11:00:00Z,30.3085,-88.1395,2.484,8.44,1111122 
DISL,ioos:station:DISL:CATA:1,2008-11-01T11:30:00Z,30.3085,-88.1395,2.445,8.31,1111122 
DISL,ioos:station:DISL:CATA:1,2008-11-01T12:00:00Z,30.3085,-88.1395,2.421,8.27,1111122 
DISL,ioos:station:DISL:CATA:1,2008-11-01T12:30:00Z,30.3085,-88.1395,2.39,8.26,1111122 
DISL,ioos:station:DISL:CATA:1,2008-11-01T13:00:00Z,30.3085,-88.1395,2.366,8.27,1111122 
DISL,ioos:station:DISL:CATA:1,2008-11-01T13:30:00Z,30.3085,-88.1395,2.344,8.27,1111122 
DISL,ioos:station:DISL:CATA:1,2008-11-01T14:00:00Z,30.3085,-88.1395,2.323,8.29,1111122 
DISL,ioos:station:DISL:CATA:1,2008-11-01T14:30:00Z,30.3085,-88.1395,2.306,8.32,1111122 
DISL,ioos:station:DISL:CATA:1,2008-11-01T15:00:00Z,30.3085,-88.1395,2.291,8.36,1111122 
DISL,ioos:station:DISL:CATA:1,2008-11-01T15:30:00Z,30.3085,-88.1395,2.286,8.35,1111122 
DISL,ioos:station:DISL:CATA:1,2008-11-01T16:00:00Z,30.3085,-88.1395,2.276,8.32,1111122 
DISL,ioos:station:DISL:CATA:1,2008-11-01T16:30:00Z,30.3085,-88.1395,2.271,8.41,1111122 
DISL,ioos:station:DISL:CATA:1,2008-11-01T17:00:00Z,30.3085,-88.1395,2.27,8.45,1111122 
DISL,ioos:station:DISL:CATA:1,2008-11-01T17:30:00Z,30.3085,-88.1395,2.273,8.48,1111122 
DISL,ioos:station:DISL:CATA:1,2008-11-01T18:00:00Z,30.3085,-88.1395,2.285,8.49,1111122 
DISL,ioos:station:DISL:CATA:1,2008-11-01T18:30:00Z,30.3085,-88.1395,2.29,7.36,1111122 
DISL,ioos:station:DISL:CATA:1,2008-11-01T19:00:00Z,30.3085,-88.1395,2.292,8.49,1111122 
DISL,ioos:station:DISL:CATA:1,2008-11-01T19:30:00Z,30.3085,-88.1395,2.31,8.51,1111122 
DISL,ioos:station:DISL:CATA:1,2008-11-01T20:00:00Z,30.3085,-88.1395,2.327,8.62,1111122 
DISL,ioos:station:DISL:CATA:1,2008-11-01T20:30:00Z,30.3085,-88.1395,2.344,8.78,1111122 
DISL,ioos:station:DISL:CATA:1,2008-11-01T21:00:00Z,30.3085,-88.1395,2.37,8.87,1111122 
DISL,ioos:station:DISL:CATA:1,2008-11-01T21:30:00Z,30.3085,-88.1395,2.392,9.21,1111122 
DISL,ioos:station:DISL:CATA:1,2008-11-01T22:00:00Z,30.3085,-88.1395,2.417,9.28,1111122 
DISL,ioos:station:DISL:CATA:1,2008-11-01T22:30:00Z,30.3085,-88.1395,2.448,9.15,1111122 
DISL,ioos:station:DISL:CATA:1,2008-11-01T23:00:00Z,30.3085,-88.1395,2.477,9.02,1111122 
DISL,ioos:station:DISL:CATA:1,2008-11-01T23:30:00Z,30.3085,-88.1395,2.522,8.84,1111122 
DISL,ioos:station:DISL:CATA:1,2008-11-02T00:00:00Z,30.3085,-88.1395,2.555,8.72,1111122 
DISL,ioos:station:DISL:CATA:1,2008-11-02T00:30:00Z,30.3085,-88.1395,2.588,8.62,1111122 
DISL,ioos:station:DISL:CATA:1,2008-11-02T01:00:00Z,30.3085,-88.1395,2.627,8.63,1111122 
DISL,ioos:station:DISL:CATA:1,2008-11-02T01:30:00Z,30.3085,-88.1395,2.66,8.6,1111122 
DISL,ioos:station:DISL:CATA:1,2008-11-02T02:00:00Z,30.3085,-88.1395,2.694,8.61,1111122 
DISL,ioos:station:DISL:CATA:1,2008-11-02T02:30:00Z,30.3085,-88.1395,2.729,8.61,1111122 
DISL,ioos:station:DISL:CATA:1,2008-11-02T03:00:00Z,30.3085,-88.1395,2.764,8.61,1111122 
DISL,ioos:station:DISL:CATA:1,2008-11-02T03:30:00Z,30.3085,-88.1395,2.79,8.58,1111122 
DISL,ioos:station:DISL:CATA:1,2008-11-02T04:00:00Z,30.3085,-88.1395,2.813,8.56,1111122 
DISL,ioos:station:DISL:CATA:1,2008-11-02T04:30:00Z,30.3085,-88.1395,2.831,8.56,1111122 
DISL,ioos:station:DISL:CATA:1,2008-11-02T05:00:00Z,30.3085,-88.1395,2.839,8.51,1111122 
DISL,ioos:station:DISL:CATA:1,2008-11-02T05:30:00Z,30.3085,-88.1395,2.853,8.49,1111122 
DISL,ioos:station:DISL:CATA:1,2008-11-02T06:00:00Z,30.3085,-88.1395,2.857,8.41,1111122 
DISL,ioos:station:DISL:CATA:1,2008-11-02T06:30:00Z,30.3085,-88.1395,2.855,8.41,1111122 
DISL,ioos:station:DISL:CATA:1,2008-11-02T07:00:00Z,30.3085,-88.1395,2.855,8.39,1111122 
DISL,ioos:station:DISL:CATA:1,2008-11-02T07:30:00Z,30.3085,-88.1395,2.842,8.32,1111122 
DISL,ioos:station:DISL:CATA:1,2008-11-02T08:00:00Z,30.3085,-88.1395,2.828,8.18,1111122 
DISL,ioos:station:DISL:CATA:1,2008-11-02T08:30:00Z,30.3085,-88.1395,2.802,6.61,1111122 
DISL,ioos:station:DISL:CATA:1,2008-11-02T09:00:00Z,30.3085,-88.1395,2.767,6.97,1111122 
DISL,ioos:station:DISL:CATA:1,2008-11-02T09:30:00Z,30.3085,-88.1395,2.739,7.78,1111122 
DISL,ioos:station:DISL:CATA:1,2008-11-02T10:00:00Z,30.3085,-88.1395,2.709,8.17,1111122 
DISL,ioos:station:DISL:CATA:1,2008-11-02T10:30:00Z,30.3085,-88.1395,2.677,8.16,1111122 
DISL,ioos:station:DISL:CATA:1,2008-11-02T11:00:00Z,30.3085,-88.1395,2.639,8.16,1111122 
DISL,ioos:station:DISL:CATA:1,2008-11-02T11:30:00Z,30.3085,-88.1395,2.596,8.16,1111122 
DISL,ioos:station:DISL:CATA:1,2008-11-02T12:00:00Z,30.3085,-88.1395,2.558,8.21,1111122 
DISL,ioos:station:DISL:CATA:1,2008-11-02T12:30:00Z,30.3085,-88.1395,2.538,8.17,1111122 
DISL,ioos:station:DISL:CATA:1,2008-11-02T13:00:00Z,30.3085,-88.1395,2.511,8.17,1111122 
DISL,ioos:station:DISL:CATA:1,2008-11-02T13:30:00Z,30.3085,-88.1395,2.479,8.18,1111122 
DISL,ioos:station:DISL:CATA:1,2008-11-02T14:00:00Z,30.3085,-88.1395,2.459,8.22,1111122 
DISL,ioos:station:DISL:CATA:1,2008-11-02T14:30:00Z,30.3085,-88.1395,2.441,8.25,1111122 
DISL,ioos:station:DISL:CATA:1,2008-11-02T15:00:00Z,30.3085,-88.1395,2.42,8.27,1111122 
DISL,ioos:station:DISL:CATA:1,2008-11-02T15:30:00Z,30.3085,-88.1395,2.399,8.36,1111122 
DISL,ioos:station:DISL:CATA:1,2008-11-02T16:00:00Z,30.3085,-88.1395,2.38,8.38,1111122 
DISL,ioos:station:DISL:CATA:1,2008-11-02T16:30:00Z,30.3085,-88.1395,2.364,8.39,1111122 
DISL,ioos:station:DISL:CATA:1,2008-11-02T17:00:00Z,30.3085,-88.1395,2.357,8.39,1111122 
DISL,ioos:station:DISL:CATA:1,2008-11-02T17:30:00Z,30.3085,-88.1395,2.354,8.4,1111122 
DISL,ioos:station:DISL:CATA:1,2008-11-02T18:00:00Z,30.3085,-88.1395,2.35,8.44,1111122 
DISL,ioos:station:DISL:CATA:1,2008-11-02T18:30:00Z,30.3085,-88.1395,2.353,8.47,1111122 
DISL,ioos:station:DISL:CATA:1,2008-11-02T19:00:00Z,30.3085,-88.1395,2.351,8.51,1111122 
DISL,ioos:station:DISL:CATA:1,2008-11-02T19:30:00Z,30.3085,-88.1395,2.374,8.46,1111122 
DISL,ioos:station:DISL:CATA:1,2008-11-02T20:00:00Z,30.3085,-88.1395,2.387,8.6,1111122 
DISL,ioos:station:DISL:CATA:1,2008-11-02T20:30:00Z,30.3085,-88.1395,2.398,8.82,1111122 
DISL,ioos:station:DISL:CATA:1,2008-11-02T21:00:00Z,30.3085,-88.1395,2.417,8.95,1111122 
DISL,ioos:station:DISL:CATA:1,2008-11-02T21:30:00Z,30.3085,-88.1395,2.436,9.01,1111122 
DISL,ioos:station:DISL:CATA:1,2008-11-02T22:00:00Z,30.3085,-88.1395,2.456,9.11,1111122 
DISL,ioos:station:DISL:CATA:1,2008-11-02T22:30:00Z,30.3085,-88.1395,2.478,9.02,1111122 
DISL,ioos:station:DISL:CATA:1,2008-11-02T23:00:00Z,30.3085,-88.1395,2.511,8.93,1111122 
DISL,ioos:station:DISL:CATA:1,2008-11-02T23:30:00Z,30.3085,-88.1395,2.535,8.86,1111122 
DISL,ioos:station:DISL:CATA:1,2008-11-03T00:00:00Z,30.3085,-88.1395,2.561,8.79,1111122 
DISL,ioos:station:DISL:CATA:1,2008-11-03T00:30:00Z,30.3085,-88.1395,2.596,8.66,1111122 
DISL,ioos:station:DISL:CATA:1,2008-11-03T01:00:00Z,30.3085,-88.1395,2.623,8.58,1111122 
DISL,ioos:station:DISL:CATA:1,2008-11-03T01:30:00Z,30.3085,-88.1395,2.65,8.58,1111122 
DISL,ioos:station:DISL:CATA:1,2008-11-03T02:00:00Z,30.3085,-88.1395,2.682,8.56,1111122 
DISL,ioos:station:DISL:CATA:1,2008-11-03T02:30:00Z,30.3085,-88.1395,2.72,8.53,1111122 
DISL,ioos:station:DISL:CATA:1,2008-11-03T03:00:00Z,30.3085,-88.1395,2.75,8.52,1111122 
DISL,ioos:station:DISL:CATA:1,2008-11-03T03:30:00Z,30.3085,-88.1395,2.768,8.51,1111122 
DISL,ioos:station:DISL:CATA:1,2008-11-03T04:00:00Z,30.3085,-88.1395,2.784,8.45,1111122 
DISL,ioos:station:DISL:CATA:1,2008-11-03T04:30:00Z,30.3085,-88.1395,2.801,8.45,1111122 
DISL,ioos:station:DISL:CATA:1,2008-11-03T05:00:00Z,30.3085,-88.1395,2.808,8.44,1111122 
DISL,ioos:station:DISL:CATA:1,2008-11-03T05:30:00Z,30.3085,-88.1395,2.816,8.41,1111122 
DISL,ioos:station:DISL:CATA:1,2008-11-03T06:00:00Z,30.3085,-88.1395,2.831,8.38,1111122 
DISL,ioos:station:DISL:CATA:1,2008-11-03T06:30:00Z,30.3085,-88.1395,2.845,8.2,1111122 
DISL,ioos:station:DISL:CATA:1,2008-11-03T07:00:00Z,30.3085,-88.1395,2.83,8.07,1111122 
DISL,ioos:station:DISL:CATA:1,2008-11-03T07:30:00Z,30.3085,-88.1395,2.797,7.99,1111122 
DISL,ioos:station:DISL:CATA:1,2008-11-03T08:00:00Z,30.3085,-88.1395,2.774,8.04,1111122 
DISL,ioos:station:DISL:CATA:1,2008-11-03T08:30:00Z,30.3085,-88.1395,2.76,8.51,1111122 
DISL,ioos:station:DISL:CATA:1,2008-11-03T09:00:00Z,30.3085,-88.1395,2.748,8.33,1111122 
DISL,ioos:station:DISL:CATA:1,2008-11-03T09:30:00Z,30.3085,-88.1395,2.732,8.23,1111122 
DISL,ioos:station:DISL:CATA:1,2008-11-03T10:00:00Z,30.3085,-88.1395,2.7,8.15,1111122 
DISL,ioos:station:DISL:CATA:1,2008-11-03T10:30:00Z,30.3085,-88.1395,2.665,8.09,1111122 
DISL,ioos:station:DISL:CATA:1,2008-11-03T11:00:00Z,30.3085,-88.1395,2.64,8.05,1111122 
DISL,ioos:station:DISL:CATA:1,2008-11-03T11:30:00Z,30.3085,-88.1395,2.606,8.1,1111122 
DISL,ioos:station:DISL:CATA:1,2008-11-03T12:00:00Z,30.3085,-88.1395,2.572,8.12,1111122 
DISL,ioos:station:DISL:CATA:1,2008-11-03T12:30:00Z,30.3085,-88.1395,2.54,8.08,1111122 
DISL,ioos:station:DISL:CATA:1,2008-11-03T13:00:00Z,30.3085,-88.1395,2.511,8.1,1111122 
DISL,ioos:station:DISL:CATA:1,2008-11-03T13:30:00Z,30.3085,-88.1395,2.486,8.14,1111122 
DISL,ioos:station:DISL:CATA:1,2008-11-03T14:00:00Z,30.3085,-88.1395,2.469,8.16,1111122 
DISL,ioos:station:DISL:CATA:1,2008-11-03T14:30:00Z,30.3085,-88.1395,2.449,8.19,1111122 
DISL,ioos:station:DISL:CATA:1,2008-11-03T15:00:00Z,30.3085,-88.1395,2.418,8.22,1111122 
DISL,ioos:station:DISL:CATA:1,2008-11-03T15:30:00Z,30.3085,-88.1395,2.399,8.23,1111122 
DISL,ioos:station:DISL:CATA:1,2008-11-03T16:00:00Z,30.3085,-88.1395,2.389,8.23,1111122 
DISL,ioos:station:DISL:CATA:1,2008-11-03T16:30:00Z,30.3085,-88.1395,2.397,8.28,1111122 
DISL,ioos:station:DISL:CATA:1,2008-11-03T17:00:00Z,30.3085,-88.1395,2.367,8.29,1111122 
DISL,ioos:station:DISL:CATA:1,2008-11-03T17:30:00Z,30.3085,-88.1395,2.349,8.28,1111122 
DISL,ioos:station:DISL:CATA:1,2008-11-03T18:00:00Z,30.3085,-88.1395,2.34,8.24,1111122 
DISL,ioos:station:DISL:CATA:1,2008-11-03T18:30:00Z,30.3085,-88.1395,2.345,8.3,1111122 
DISL,ioos:station:DISL:CATA:1,2008-11-03T19:00:00Z,30.3085,-88.1395,2.354,8.3,1111122 
DISL,ioos:station:DISL:CATA:1,2008-11-03T19:30:00Z,30.3085,-88.1395,2.362,8.16,1111122 
DISL,ioos:station:DISL:CATA:1,2008-11-03T20:00:00Z,30.3085,-88.1395,2.372,8.22,1111122 
DISL,ioos:station:DISL:CATA:1,2008-11-03T20:30:00Z,30.3085,-88.1395,2.377,8.25,1111122 
DISL,ioos:station:DISL:CATA:1,2008-11-03T21:00:00Z,30.3085,-88.1395,2.396,8.35,1111122 
DISL,ioos:station:DISL:CATA:1,2008-11-03T21:30:00Z,30.3085,-88.1395,2.414,8.52,1111122 
DISL,ioos:station:DISL:CATA:1,2008-11-03T22:00:00Z,30.3085,-88.1395,2.436,8.51,1111122 
DISL,ioos:station:DISL:CATA:1,2008-11-03T22:30:00Z,30.3085,-88.1395,2.452,8.62,1111122 
DISL,ioos:station:DISL:CATA:1,2008-11-03T23:00:00Z,30.3085,-88.1395,2.48,8.59,1111122 
DISL,ioos:station:DISL:CATA:1,2008-11-03T23:30:00Z,30.3085,-88.1395,2.513,8.54,1111122 
DISL,ioos:station:DISL:CATA:1,2008-11-04T00:00:00Z,30.3085,-88.1395,2.543,8.48,1111122 
DISL,ioos:station:DISL:CATA:1,2008-11-04T00:30:00Z,30.3085,-88.1395,2.569,8.4,1111122 
DISL,ioos:station:DISL:CATA:1,2008-11-04T01:00:00Z,30.3085,-88.1395,2.586,8.33,1111122 
DISL,ioos:station:DISL:CATA:1,2008-11-04T01:30:00Z,30.3085,-88.1395,2.628,8.33,1111122 
DISL,ioos:station:DISL:CATA:1,2008-11-04T02:00:00Z,30.3085,-88.1395,2.653,8.33,1111122 
DISL,ioos:station:DISL:CATA:1,2008-11-04T02:30:00Z,30.3085,-88.1395,2.682,8.31,1111122 
DISL,ioos:station:DISL:CATA:1,2008-11-04T03:00:00Z,30.3085,-88.1395,2.711,8.29,1111122 
DISL,ioos:station:DISL:CATA:1,2008-11-04T03:30:00Z,30.3085,-88.1395,2.741,8.21,1111122 
DISL,ioos:station:DISL:CATA:1,2008-11-04T04:00:00Z,30.3085,-88.1395,2.762,8.2,1111122 
DISL,ioos:station:DISL:CATA:1,2008-11-04T04:30:00Z,30.3085,-88.1395,2.773,8.22,1111122 
DISL,ioos:station:DISL:CATA:1,2008-11-04T05:00:00Z,30.3085,-88.1395,2.79,8.18,1111122 
DISL,ioos:station:DISL:CATA:1,2008-11-04T05:30:00Z,30.3085,-88.1395,2.803,8.15,1111122 
DISL,ioos:station:DISL:CATA:1,2008-11-04T06:00:00Z,30.3085,-88.1395,2.813,8.13,1111122 
DISL,ioos:station:DISL:CATA:1,2008-11-04T06:30:00Z,30.3085,-88.1395,2.816,8.07,1111122 
DISL,ioos:station:DISL:CATA:1,2008-11-04T07:00:00Z,30.3085,-88.1395,2.818,8.03,1111122 
DISL,ioos:station:DISL:CATA:1,2008-11-04T07:30:00Z,30.3085,-88.1395,2.81,7.78,1111122 
DISL,ioos:station:DISL:CATA:1,2008-11-04T08:00:00Z,30.3085,-88.1395,2.802,7.62,1111122 
DISL,ioos:station:DISL:CATA:1,2008-11-04T08:30:00Z,30.3085,-88.1395,2.783,7.59,1111122 
DISL,ioos:station:DISL:CATA:1,2008-11-04T09:00:00Z,30.3085,-88.1395,2.768,7.84,1111122 
DISL,ioos:station:DISL:CATA:1,2008-11-04T09:30:00Z,30.3085,-88.1395,2.75,8.04,1111122 
DISL,ioos:station:DISL:CATA:1,2008-11-04T10:00:00Z,30.3085,-88.1395,2.712,8.02,1111122 
DISL,ioos:station:DISL:CATA:1,2008-11-04T10:30:00Z,30.3085,-88.1395,2.692,7.93,1111122 
DISL,ioos:station:DISL:CATA:1,2008-11-04T11:00:00Z,30.3085,-88.1395,2.666,7.9,1111122 
DISL,ioos:station:DISL:CATA:1,2008-11-04T11:30:00Z,30.3085,-88.1395,2.634,7.88,1111122 
DISL,ioos:station:DISL:CATA:1,2008-11-04T12:00:00Z,30.3085,-88.1395,2.612,7.9,1111122 
DISL,ioos:station:DISL:CATA:1,2008-11-04T12:30:00Z,30.3085,-88.1395,2.573,7.92,1111122 
DISL,ioos:station:DISL:CATA:1,2008-11-04T13:00:00Z,30.3085,-88.1395,2.534,7.9,1111122 
DISL,ioos:station:DISL:CATA:1,2008-11-04T13:30:00Z,30.3085,-88.1395,2.523,7.99,1111122 
DISL,ioos:station:DISL:CATA:1,2008-11-04T14:00:00Z,30.3085,-88.1395,2.501,8.0,1111122 
DISL,ioos:station:DISL:CATA:1,2008-11-04T14:30:00Z,30.3085,-88.1395,2.479,8.03,1111122 
DISL,ioos:station:DISL:CATA:1,2008-11-04T15:00:00Z,30.3085,-88.1395,2.458,8.02,1111122 
DISL,ioos:station:DISL:CATA:1,2008-11-04T15:30:00Z,30.3085,-88.1395,2.427,8.01,1111122 
DISL,ioos:station:DISL:CATA:1,2008-11-04T16:00:00Z,30.3085,-88.1395,2.414,8.02,1111122 
DISL,ioos:station:DISL:CATA:1,2008-11-04T16:30:00Z,30.3085,-88.1395,2.415,8.03,1111122 
DISL,ioos:station:DISL:CATA:1,2008-11-04T17:00:00Z,30.3085,-88.1395,2.398,8.02,1111122 
DISL,ioos:station:DISL:CATA:1,2008-11-04T17:30:00Z,30.3085,-88.1395,2.39,8.03,1111122 
DISL,ioos:station:DISL:CATA:1,2008-11-04T18:00:00Z,30.3085,-88.1395,2.365,8.06,1111122 
DISL,ioos:station:DISL:CATA:1,2008-11-04T18:30:00Z,30.3085,-88.1395,2.347,8.07,1111122 
DISL,ioos:station:DISL:CATA:1,2008-11-04T19:00:00Z,30.3085,-88.1395,2.343,8.05,1111122 
DISL,ioos:station:DISL:CATA:1,2008-11-04T19:30:00Z,30.3085,-88.1395,2.351,8.09,1111122 
DISL,ioos:station:DISL:CATA:1,2008-11-04T20:00:00Z,30.3085,-88.1395,2.368,8.11,1111122 
DISL,ioos:station:DISL:CATA:1,2008-11-04T20:30:00Z,30.3085,-88.1395,2.377,8.12,1111122 
DISL,ioos:station:DISL:CATA:1,2008-11-04T21:00:00Z,30.3085,-88.1395,2.384,8.11,1111122 
DISL,ioos:station:DISL:CATA:1,2008-11-04T21:30:00Z,30.3085,-88.1395,2.396,8.07,1111122 
DISL,ioos:station:DISL:CATA:1,2008-11-04T22:00:00Z,30.3085,-88.1395,2.411,8.07,1111122 
DISL,ioos:station:DISL:CATA:1,2008-11-04T22:30:00Z,30.3085,-88.1395,2.423,8.12,1111122 
DISL,ioos:station:DISL:CATA:1,2008-11-04T23:00:00Z,30.3085,-88.1395,2.435,8.2,1111122 
DISL,ioos:station:DISL:CATA:1,2008-11-04T23:30:00Z,30.3085,-88.1395,2.455,8.21,1111122 
DISL,ioos:station:DISL:CATA:1,2008-11-05T00:00:00Z,30.3085,-88.1395,2.47,8.15,1111122 
DISL,ioos:station:DISL:CATA:1,2008-11-05T00:30:00Z,30.3085,-88.1395,2.492,8.11,1111122 
DISL,ioos:station:DISL:CATA:1,2008-11-05T01:00:00Z,30.3085,-88.1395,2.517,8.07,1111122 
DISL,ioos:station:DISL:CATA:1,2008-11-05T01:30:00Z,30.3085,-88.1395,2.545,8.05,1111122 
DISL,ioos:station:DISL:CATA:1,2008-11-05T02:00:00Z,30.3085,-88.1395,2.579,8.02,1111122 
DISL,ioos:station:DISL:CATA:1,2008-11-05T02:30:00Z,30.3085,-88.1395,2.607,8.0,1111122 
DISL,ioos:station:DISL:CATA:1,2008-11-05T03:00:00Z,30.3085,-88.1395,2.631,8.01,1111122 
DISL,ioos:station:DISL:CATA:1,2008-11-05T03:30:00Z,30.3085,-88.1395,2.648,8.01,1111122 
DISL,ioos:station:DISL:CATA:1,2008-11-05T04:30:00Z,30.3085,-88.1395,2.663,7.99,1111122 
DISL,ioos:station:DISL:CATA:1,2008-11-05T04:30:00Z,30.3085,-88.1395,2.679,7.98,1111122 
DISL,ioos:station:DISL:CATA:1,2008-11-05T05:00:00Z,30.3085,-88.1395,2.696,7.95,1111122 
DISL,ioos:station:DISL:CATA:1,2008-11-05T05:30:00Z,30.3085,-88.1395,2.704,7.89,1111122 
DISL,ioos:station:DISL:CATA:1,2008-11-05T06:00:00Z,30.3085,-88.1395,2.718,7.87,1111122 
DISL,ioos:station:DISL:CATA:1,2008-11-05T06:30:00Z,30.3085,-88.1395,2.716,7.86,1111122 
DISL,ioos:station:DISL:CATA:1,2008-11-05T07:00:00Z,30.3085,-88.1395,2.733,7.87,1111122 
DISL,ioos:station:DISL:CATA:1,2008-11-05T07:30:00Z,30.3085,-88.1395,2.742,7.82,1111122 
DISL,ioos:station:DISL:CATA:1,2008-11-05T08:00:00Z,30.3085,-88.1395,2.738,7.78,1111122 
DISL,ioos:station:DISL:CATA:1,2008-11-05T08:30:00Z,30.3085,-88.1395,2.733,7.75,1111122 
DISL,ioos:station:DISL:CATA:1,2008-11-05T09:00:00Z,30.3085,-88.1395,2.726,7.25,1111122 
DISL,ioos:station:DISL:CATA:1,2008-11-05T09:30:00Z,30.3085,-88.1395,2.71,6.82,1111122 
DISL,ioos:station:DISL:CATA:1,2008-11-05T10:00:00Z,30.3085,-88.1395,2.691,6.78,1111122 
DISL,ioos:station:DISL:CATA:1,2008-11-05T10:30:00Z,30.3085,-88.1395,2.661,6.51,1111122 
DISL,ioos:station:DISL:CATA:1,2008-11-05T11:00:00Z,30.3085,-88.1395,2.647,7.06,1111122 
DISL,ioos:station:DISL:CATA:1,2008-11-05T11:30:00Z,30.3085,-88.1395,2.626,7.76,1111122 
DISL,ioos:station:DISL:CATA:1,2008-11-05T12:00:00Z,30.3085,-88.1395,2.59,7.8,1111122 
DISL,ioos:station:DISL:CATA:1,2008-11-05T12:30:00Z,30.3085,-88.1395,2.559,7.71,1111122 
DISL,ioos:station:DISL:CATA:1,2008-11-05T13:00:00Z,30.3085,-88.1395,2.538,7.63,1111122 
DISL,ioos:station:DISL:CATA:1,2008-11-05T13:30:00Z,30.3085,-88.1395,2.515,7.63,1111122 
DISL,ioos:station:DISL:CATA:1,2008-11-05T14:00:00Z,30.3085,-88.1395,2.49,7.81,1111122 
DISL,ioos:station:DISL:CATA:1,2008-11-05T14:30:00Z,30.3085,-88.1395,2.465,7.93,1111122 
DISL,ioos:station:DISL:CATA:1,2008-11-05T15:00:00Z,30.3085,-88.1395,2.444,7.9,1111122 
DISL,ioos:station:DISL:CATA:1,2008-11-05T15:30:00Z,30.3085,-88.1395,2.42,7.92,1111122 
DISL,ioos:station:DISL:CATA:1,2008-11-05T16:00:00Z,30.3085,-88.1395,2.393,7.88,1111122 
DISL,ioos:station:DISL:CATA:1,2008-11-05T16:30:00Z,30.3085,-88.1395,2.363,8.02,1111122 
DISL,ioos:station:DISL:CATA:1,2008-11-05T17:00:00Z,30.3085,-88.1395,2.35,8.11,1111122 
DISL,ioos:station:DISL:CATA:1,2008-11-05T17:30:00Z,30.3085,-88.1395,2.337,8.18,1111122 
DISL,ioos:station:DISL:CATA:1,2008-11-05T18:00:00Z,30.3085,-88.1395,2.318,8.26,1111122 
DISL,ioos:station:DISL:CATA:1,2008-11-05T18:30:00Z,30.3085,-88.1395,2.308,8.25,1111122 
DISL,ioos:station:DISL:CATA:1,2008-11-05T19:00:00Z,30.3085,-88.1395,2.311,8.31,1111122 
DISL,ioos:station:DISL:CATA:1,2008-11-05T19:30:00Z,30.3085,-88.1395,2.317,8.37,1111122 
DISL,ioos:station:DISL:CATA:1,2008-11-05T20:00:00Z,30.3085,-88.1395,2.32,8.26,1111122 
DISL,ioos:station:DISL:CATA:1,2008-11-05T20:30:00Z,30.3085,-88.1395,2.329,8.27,1111122 
DISL,ioos:station:DISL:CATA:1,2008-11-05T21:00:00Z,30.3085,-88.1395,2.35,8.36,1111122 
DISL,ioos:station:DISL:CATA:1,2008-11-05T21:30:00Z,30.3085,-88.1395,2.367,8.39,1111122 
DISL,ioos:station:DISL:CATA:1,2008-11-05T22:00:00Z,30.3085,-88.1395,2.368,8.66,1111122 
DISL,ioos:station:DISL:CATA:1,2008-11-05T22:30:00Z,30.3085,-88.1395,2.384,8.78,1111122 
DISL,ioos:station:DISL:CATA:1,2008-11-05T23:00:00Z,30.3085,-88.1395,2.407,8.78,1111122 
DISL,ioos:station:DISL:CATA:1,2008-11-05T23:30:00Z,30.3085,-88.1395,2.426,8.76,1111122 
DISL,ioos:station:DISL:CATA:1,2008-11-06T00:00:00Z,30.3085,-88.1395,2.447,8.63,1111122 
DISL,ioos:station:DISL:CATA:1,2008-11-06T00:30:00Z,30.3085,-88.1395,2.468,8.57,1111122 
DISL,ioos:station:DISL:CATA:1,2008-11-06T01:00:00Z,30.3085,-88.1395,2.493,8.53,1111122 
DISL,ioos:station:DISL:CATA:1,2008-11-06T01:30:00Z,30.3085,-88.1395,2.519,8.46,1111122 
DISL,ioos:station:DISL:CATA:1,2008-11-06T02:00:00Z,30.3085,-88.1395,2.549,8.38,1111122 
DISL,ioos:station:DISL:CATA:1,2008-11-06T02:30:00Z,30.3085,-88.1395,2.573,8.24,1111122 
DISL,ioos:station:DISL:CATA:1,2008-11-06T03:00:00Z,30.3085,-88.1395,2.593,8.18,1111122 
DISL,ioos:station:DISL:CATA:1,2008-11-06T03:30:00Z,30.3085,-88.1395,2.616,8.09,1111122 
DISL,ioos:station:DISL:CATA:1,2008-11-06T04:00:00Z,30.3085,-88.1395,2.633,8.01,1111122 
DISL,ioos:station:DISL:CATA:1,2008-11-06T04:30:00Z,30.3085,-88.1395,2.648,7.93,1111122 
DISL,ioos:station:DISL:CATA:1,2008-11-06T05:00:00Z,30.3085,-88.1395,2.665,7.88,1111122 
DISL,ioos:station:DISL:CATA:1,2008-11-06T05:30:00Z,30.3085,-88.1395,2.668,7.87,1111122 
DISL,ioos:station:DISL:CATA:1,2008-11-06T06:30:00Z,30.3085,-88.1395,2.683,7.78,1111122 
DISL,ioos:station:DISL:CATA:1,2008-11-06T06:30:00Z,30.3085,-88.1395,2.692,7.7,1111122 
DISL,ioos:station:DISL:CATA:1,2008-11-06T07:00:00Z,30.3085,-88.1395,2.711,7.54,1111122 
DISL,ioos:station:DISL:CATA:1,2008-11-06T07:30:00Z,30.3085,-88.1395,2.719,7.35,1111122 
DISL,ioos:station:DISL:CATA:1,2008-11-06T08:00:00Z,30.3085,-88.1395,2.715,7.18,1111122 
DISL,ioos:station:DISL:CATA:1,2008-11-06T08:30:00Z,30.3085,-88.1395,2.722,7.04,1111122 
DISL,ioos:station:DISL:CATA:1,2008-11-06T09:00:00Z,30.3085,-88.1395,2.707,6.88,1111122 
DISL,ioos:station:DISL:CATA:1,2008-11-06T09:30:00Z,30.3085,-88.1395,2.709,6.82,1111122 
DISL,ioos:station:DISL:CATA:1,2008-11-06T10:00:00Z,30.3085,-88.1395,2.688,6.82,1111122 
DISL,ioos:station:DISL:CATA:1,2008-11-06T10:30:00Z,30.3085,-88.1395,2.673,6.69,1111122 
DISL,ioos:station:DISL:CATA:1,2008-11-06T11:00:00Z,30.3085,-88.1395,2.655,6.52,1111122 
DISL,ioos:station:DISL:CATA:1,2008-11-06T11:30:00Z,30.3085,-88.1395,2.636,6.47,1111122 
DISL,ioos:station:DISL:CATA:1,2008-11-06T12:30:00Z,30.3085,-88.1395,2.62,6.54,1111122 
DISL,ioos:station:DISL:CATA:1,2008-11-06T12:30:00Z,30.3085,-88.1395,2.606,7.58,1111122 
DISL,ioos:station:DISL:CATA:1,2008-11-06T13:00:00Z,30.3085,-88.1395,2.589,7.71,1111122 
DISL,ioos:station:DISL:CATA:1,2008-11-06T13:30:00Z,30.3085,-88.1395,2.576,7.74,1111122 
DISL,ioos:station:DISL:CATA:1,2008-11-06T14:30:00Z,30.3085,-88.1395,2.545,7.86,1111122 
DISL,ioos:station:DISL:CATA:1,2008-11-06T14:30:00Z,30.3085,-88.1395,2.529,7.93,1111122 
DISL,ioos:station:DISL:CATA:1,2008-11-06T15:30:00Z,30.3085,-88.1395,2.502,7.99,1111122 
DISL,ioos:station:DISL:CATA:1,2008-11-06T15:30:00Z,30.3085,-88.1395,2.47,8.03,1111122 